Weather History for Covington, KY

Change the Weather History Date:

Friday, April 5, 2013

  Actual Average Record
Temperature  
Mean Temperature 45 °F 51 °F  
Max Temperature 63 °F 61 °F 85 °F (1929)
Min Temperature 27 °F 40 °F 21 °F (1995)
Degree Days  
Heating Degree Days 20 15  
Month to date heating degree days 120 77  
Since 1 July heating degree days 4685 4570  
Cooling Degree Days 0 0  
Month to date cooling degree days 0 0  
Year to date cooling degree days 0 0  
Moisture  
Dew Point 26 °F    
Average Humidity 57    
Maximum Humidity 92    
Minimum Humidity 22    
Precipitation  
Precipitation 0.00 in 0.12 in 1.19 in (1936)
Month to date precipitation T 0.62  
Year to date precipitation 9.51 10.39  
Snow  
Snow 0.00 in 0.00 in 1.00 in (1898)
Month to date snowfall T 0.2  
Since 1 July snowfall 25.2 21.8  
Snow Depth 0.00 in    
Sea Level Pressure  
Sea Level Pressure 30.05 in    
Wind  
Wind Speed 7 mph (NNW)    
Max Wind Speed 18 mph    
Max Gust Speed 25 mph    
Visibility 10 miles    
Events      
T = Trace of Precipitation, MM = Missing Value Source: NWS Daily Summary

Daily Weather History Graph

Daily Weather History Graph

Search for Another Location

Airport:

Trip Planner

Search our weather history database for the weather conditions in past years. The results will help you decide how hot, cold, wet, or windy it might be!

Date:

Astronomy

Apr. 05, 2013 Rise Set
Actual Time 7:16 AM EDT 8:06 PM EDT
Civil Twilight 6:49 AM EDT 8:33 PM EDT
Nautical Twilight 6:17 AM EDT 9:05 PM EDT
Astronomical Twilight 5:44 AM EDT 9:39 PM EDT
Moon 4:21 AM EDT (4/5) 3:31 PM EDT (4/5)
Length of Visible Light 13h 44m
Length of Day
12h 49m
Waning Crescent, 24% of the Moon is Illuminated
Apr 5
Waning Crescent
Apr 10
New
Apr 18
First Quarter
Apr 25
Full
May 2
Last Quarter

Hourly Weather History & Observations

Time (EDT) Temp. Windchill Dew Point Humidity Pressure Visibility Wind Dir Wind Speed Gust Speed Precip Events Conditions
12:52 AM 36.0 °F 33.3 °F 24.1 °F 62% 29.99 in 10.0 mi SSW 3.5 mph - N/A   Partly Cloudy
1:52 AM 36.0 °F - 25.0 °F 64% 29.99 in 10.0 mi Calm Calm - N/A   Clear
2:52 AM 33.1 °F - 26.1 °F 75% 29.99 in 10.0 mi Calm Calm - N/A   Clear
3:52 AM 34.0 °F 29.8 °F 25.0 °F 70% 29.99 in 10.0 mi West 4.6 mph - N/A   Clear
4:52 AM 32.0 °F - 26.1 °F 79% 30.01 in 10.0 mi Calm Calm - N/A   Clear
5:52 AM 30.9 °F 27.5 °F 25.0 °F 79% 30.02 in 10.0 mi SW 3.5 mph - N/A   Clear
6:52 AM 28.0 °F 24.2 °F 26.1 °F 92% 30.03 in 10.0 mi South 3.5 mph - N/A   Clear
7:52 AM 32.0 °F - 26.1 °F 79% 30.05 in 9.0 mi Calm Calm - N/A   Clear
8:52 AM 39.0 °F - 32.0 °F 76% 30.06 in 9.0 mi Calm Calm - N/A   Clear
9:52 AM 50.0 °F - 27.0 °F 41% 30.05 in 10.0 mi WNW 10.4 mph - N/A   Clear
10:52 AM 54.0 °F - 26.1 °F 34% 30.06 in 10.0 mi NW 6.9 mph - N/A   Clear
11:52 AM 57.9 °F - 28.9 °F 33% 30.06 in 10.0 mi NW 11.5 mph - N/A   Clear
12:52 PM 60.1 °F - 30.9 °F 33% 30.05 in 9.0 mi NW 12.7 mph 17.3 mph N/A   Partly Cloudy
2:52 PM 62.1 °F - 28.0 °F 28% 30.04 in 10.0 mi North 13.8 mph - N/A   Partly Cloudy
3:52 PM 62.1 °F - 25.0 °F 24% 30.03 in 10.0 mi North 13.8 mph 20.7 mph N/A   Partly Cloudy
4:52 PM 61.0 °F - 21.0 °F 21% 30.03 in 10.0 mi NNW 13.8 mph - N/A   Partly Cloudy
5:52 PM 60.1 °F - 23.0 °F 24% 30.04 in 10.0 mi NW 9.2 mph - N/A   Partly Cloudy
6:52 PM 57.9 °F - 23.0 °F 26% 30.06 in 10.0 mi North 10.4 mph - N/A   Scattered Clouds
7:52 PM 54.0 °F - 26.1 °F 34% 30.07 in 10.0 mi North 9.2 mph - N/A   Scattered Clouds
8:52 PM 51.1 °F - 28.0 °F 41% 30.10 in 10.0 mi North 8.1 mph - N/A   Partly Cloudy
9:52 PM 51.1 °F - 27.0 °F 39% 30.12 in 10.0 mi NNE 8.1 mph - N/A   Clear
10:52 PM 48.9 °F - 27.0 °F 43% 30.13 in 10.0 mi NNE 8.1 mph - N/A   Clear
11:52 PM 48.9 °F - 25.0 °F 39% 30.13 in 10.0 mi NE 6.9 mph - N/A   Clear